Location: Archemont
(49.1579°N, 1.7598°E)
Time: 09:56:00
(UTC+00:00)

Altair - Pass Details

Date: 19 April 2024
Orbit: 1501 x 1682 km, 47.2° (Epoch: 17 May)

Event Time Altitude Azimuth Distance (km) Brightness Sun altitude
Rises 19:53:13 0° 241° (WSW) 4,911 10.6 -9.9°
Reaches altitude 10° 19:56:25 10° 239° (WSW) 3,911 10.0 -10.3°
Maximum altitude 20:06:18 67° 160° (SSE) 1,735 7.6 -11.7°
Drops below altitude 10° 20:15:50 10° 80° (E) 3,786 9.1 -13.0°
Sets 20:18:53 0° 78° (ENE) 4,747 9.7 -13.4°
